Regional Weather Roundup
Issued by NWS

Home | Current Version | Previous Version | Graphics & Text | Print | Product List | Glossary On
Versions: 1 2 3 4 5 6 7 8 9 10 11 12 13 14 15 16 17 18 19 20 21 22 23 24 25 26 27 28 29 30 31 32 33 34 35 36 37 38 39 40 41 42 43 44 45 46 47 48 49 50
000
ASUS43 KOAX 301310
RWRNE

WEATHER ROUNDUP FOR NEBRASKA
NATIONAL WEATHER SERVICE OMAHA NE
800 AM CDT MON MAY 30 2016

NOTES: SATELLITE DATA IS BEING USED TO AUGMENT CLOUD COVER ABOVE
       12000 FEET.
       "FAIR" INDICATES FEW OR NO CLOUDS BELOW 12,000 FEET WITH NO
       SIGNIFICANT WEATHER AND/OR OBSTRUCTIONS TO VISIBILITY.

  * THESE STATIONS DO NOT REPORT WEATHER SUCH AS RAIN...SNOW OR FOG.

NEZ001>004-019>022-054>056-301400-
NEBRASKA PANHANDLE

CITY           SKY/WX    TMP DP  RH WIND       PRES   REMARKS
SCOTTSBLUFF    SUNNY     55  50  83 N3        29.98S
ALLIANCE       MOSUNNY   54  50  86 S5        29.97S
CHADRON        CLOUDY    58  51  78 CALM      29.93S
KIMBALL        SUNNY     52  49  89 W9        30.03S
SIDNEY         SUNNY     55  50  83 SW8       30.00F
$$

NEZ057>060-069>072-079>082-301400-
SOUTHWEST NEBRASKA

CITY           SKY/WX    TMP DP  RH WIND       PRES   REMARKS
NORTH PLATTE   MOSUNNY   59  55  87 SE7       30.02R
IMPERIAL       SUNNY     59  51  75 W12       29.99R
LEXINGTON      CLOUDY    59  55  85 CALM      30.02S
MCCOOK         SUNNY     60  53  77 SE3       30.00S
OGALLALA       SUNNY     60  51  72 W5        29.99S
$$

NEZ005>010-023>029-035>040-094-301400-
NORTH CENTRAL NEBRASKA

CITY           SKY/WX    TMP DP  RH WIND       PRES   REMARKS
VALENTINE      MOSUNNY   62  54  74 E5        29.96F
AINSWORTH      MOSUNNY   61  55  79 E3        29.99R
BROKEN BOW     MOSUNNY   59  55  87 SE7       30.02R
O`NEILL        MOSUNNY   64  58  80 SE5       30.01S
ORD            CLOUDY    62  54  74 S6        30.01R
THEDFORD       PTSUNNY   61  54  78 SE7       30.00R
$$

NEZ041-046>049-061>064-073>077-083>087-301400-
SOUTH CENTRAL NEBRASKA

CITY           SKY/WX    TMP DP  RH WIND       PRES   REMARKS
GRAND ISLAND   CLOUDY    63  55  75 SE3       30.01S
AURORA         PTSUNNY   62  55  78 CALM      30.01S
HASTINGS       SUNNY     64  55  72 CALM      30.00F
HEBRON         PTSUNNY   67  61  81 S7        30.01S
HOLDREGE       MOSUNNY   64  56  76 S3        30.00F
KEARNEY *      SUNNY     64  55  72 S6        30.01F
YORK           CLOUDY    63  57  82 CALM      30.01F
$$

NEZ011>018-030>034-042>045-301400-
NORTHEAST NEBRASKA

CITY           SKY/WX    TMP DP  RH WIND       PRES   REMARKS
NORFOLK        MOSUNNY   66  57  72 SE12      30.01R
ALBION         PTSUNNY   65  56  71 S8        30.02R
BLAIR          SUNNY     69  62  78 S8        30.03S
FREMONT        MOSUNNY   69  61  74 S3        30.03S
TEKAMAH          N/A    N/A N/A N/A MISG      30.01S
WAYNE          CLOUDY    65  55  70 SE13      30.02R
$$

NEZ050>053-065>068-078-088>093-301400-
SOUTHEAST NEBRASKA

CITY           SKY/WX    TMP DP  RH WIND       PRES   REMARKS
LINCOLN        MOSUNNY   67  60  78 N6        30.02S
OMAHA EPPLEY   MOSUNNY   69  63  81 S6        30.02S
BEATRICE       SUNNY     68  61  77 S8        30.02R
FALLS CITY     SUNNY     71  63  75 S5        30.01S
NEBRASKA CITY  SUNNY     68  62  79 CALM      30.03R
PLATTSMOUTH    SUNNY     70  62  75 CALM      30.02S
$$

NEZ044-045-051>053-067-301400-
OMAHA AREA

CITY           SKY/WX    TMP DP  RH WIND       PRES   REMARKS
OMAHA EPPLEY   MOSUNNY   69  63  81 S6        30.02S
BLAIR          SUNNY     69  62  78 S8        30.03S
FREMONT        MOSUNNY   69  61  74 S3        30.03S
MILLARD        SUNNY     69  61  76 NW3       30.03S
OFFUTT AFB     MOSUNNY   69  63  81 VRB1      30.01S
PLATTSMOUTH    SUNNY     70  62  75 CALM      30.02S
WAHOO          FAIR      68  61  79 NE3       30.02F
$$



USA.gov is the U.S. government's official web portal to all federal, state and local government web resources and services.